N6ZHV-13 Weather Reports


time (UTC)temp
C
wind
direction
speed
KPH
gust
KPH
rain 1hr
cm
rain 24hr
cm
rain mn
cm
humidity
%
barometer
mb
20260508033448 16 285 3.2 6.4 0.00 0.00 0.00 84 1015.7
20260508032948 17 230 1.6 8.0 0.00 0.00 0.00 83 1015.6
20260508032448 17 296 3.2 8.0 0.00 0.00 0.00 83 1015.5
20260508031948 17 278 6.4 9.7 0.00 0.00 0.00 83 1015.3
20260508031448 17 260 4.8 8.0 0.00 0.00 0.00 82 1015.3
20260508030948 17 215 4.8 8.0 0.00 0.00 0.00 81 1015.0
20260508030448 17 282 1.6 8.0 0.00 0.00 0.00 80 1014.9
20260508025948 17 315 3.2 9.7 0.00 0.00 0.00 80 1014.8
20260508025448 17 265 6.4 9.7 0.00 0.00 0.00 79 1014.7
20260508024948 18 265 4.8 9.7 0.00 0.00 0.00 79 1014.6
20260508024448 18 222 8.0 9.7 0.00 0.00 0.00 78 1014.5
20260508023948 18 237 1.6 9.7 0.00 0.00 0.00 77 1014.3
20260508023448 18 255 8.0 9.7 0.00 0.00 0.00 77 1014.1
20260508022948 18 255 4.8 9.7 0.00 0.00 0.00 76 1014.0
20260508022448 18 272 6.4 11.3 0.00 0.00 0.00 75 1013.0
20260508021948 18 261 6.4 9.7 0.00 0.00 0.00 74 1013.8
20260508021448 19 220 6.4 9.7 0.00 0.00 0.00 72 1013.8
20260508020948 20 213 3.2 8.0 0.00 0.00 0.00 71 1013.7
20260508020448 20 274 4.8 9.7 0.00 0.00 0.00 71 1013.6
20260508015948 20 241 8.0 9.7 0.00 0.00 0.00 71 1013.6
20260508015448 20 253 8.0 11.3 0.00 0.00 0.00 70 1013.6
20260508014948 20 286 4.8 9.7 0.00 0.00 0.00 69 1013.6
20260508014448 20 233 4.8 9.7 0.00 0.00 0.00 68 1013.7
20260508013948 20 305 3.2 9.7 0.00 0.00 0.00 69 1013.6
20260508013448 20 254 6.4 12.9 0.00 0.00 0.00 68 1013.6
20260508012948 21 220 6.4 8.0 0.00 0.00 0.00 67 1013.6
20260508012448 20 230 6.4 11.3 0.00 0.00 0.00 66 1013.6
20260508011948 21 220 6.4 12.9 0.00 0.00 0.00 66 1013.5
20260508011448 21 262 8.0 11.3 0.00 0.00 0.00 65 1013.5
20260508010948 21 239 4.8 11.3 0.00 0.00 0.00 64 1013.5
20260508010448 21 199 0.0 11.3 0.00 0.00 0.00 63 1013.5
20260508005948 21 157 3.2 9.7 0.00 0.00 0.00 64 1013.4
20260508005448 21 251 8.0 12.9 0.00 0.00 0.00 64 1013.4
20260508004948 21 271 6.4 11.3 0.00 0.00 0.00 63 1013.4
20260508004448 22 254 8.0 14.5 0.00 0.00 0.00 61 1013.4
20260508003948 22 196 3.2 12.9 0.00 0.00 0.00 62 1013.4
20260508003448 22 233 3.2 14.5 0.00 0.00 0.00 62 1013.4
20260508002948 22 254 11.3 12.9 0.00 0.00 0.00 61 1013.4
20260508002448 22 244 11.3 16.1 0.00 0.00 0.00 61 1013.4
20260508001948 22 217 6.4 16.1 0.00 0.00 0.00 60 1013.4
20260508001448 22 230 9.7 14.5 0.00 0.00 0.00 60 1013.5
20260508000948 22 212 6.4 12.9 0.00 0.00 0.00 59 1013.6
20260508000450 22 232 3.2 14.5 0.00 0.00 0.00 59 1013.7
20260507235948 22 229 0.0 11.3 0.00 0.00 0.00 58 1013.7
20260507235448 22 217 6.4 16.1 0.00 0.00 0.00 58 1013.7
20260507234948 22 244 14.5 14.5 0.00 0.00 0.00 58 1013.8
20260507234448 22 284 1.6 12.9 0.00 0.00 0.00 59 1012.7
20260507233949 22 264 6.4 14.5 0.00 0.00 0.00 58 1013.8
20260507233448 23 281 6.4 12.9 0.00 0.00 0.00 57 1013.9
20260507232948 23 243 6.4 12.9 0.00 0.00 0.00 58 1013.9
20260507232448 23 237 9.7 12.9 0.00 0.00 0.00 57 1014.0
20260507231948 23 284 8.0 12.9 0.00 0.00 0.00 57 1014.0
20260507231448 22 246 8.0 14.5 0.00 0.00 0.00 57 1014.1
20260507230948 22 213 8.0 16.1 0.00 0.00 0.00 57 1014.2
20260507230448 22 189 4.8 14.5 0.00 0.00 0.00 58 1014.2
20260507225948 22 220 9.7 14.5 0.00 0.00 0.00 57 1014.3
20260507225448 23 246 0.0 16.1 0.00 0.00 0.00 58 1014.4
20260507224948 22 227 1.6 16.1 0.00 0.00 0.00 59 1014.4
20260507224448 22 312 9.7 17.7 0.00 0.00 0.00 58 1013.6
20260507223948 22 274 14.5 14.5 0.00 0.00 0.00 58 1013.4
20260507223448 22 217 14.5 14.5 0.00 0.00 0.00 59 1014.6
20260507222951 22 239 11.3 16.1 0.00 0.00 0.00 1014.7
20260507222948 22 239 11.3 16.1 0.00 0.00 0.00 59 1014.7
20260507222448 22 213 3.2 17.7 0.00 0.00 0.00 59 1014.7
20260507221948 22 264 11.3 14.5 0.00 0.00 0.00 59 1014.8
20260507221448 23 286 9.7 12.9 0.00 0.00 0.00 58 1014.8
20260507220948 22 212 4.8 12.9 0.00 0.00 0.00 58 1015.0
20260507220448 22 251 8.0 14.5 0.00 0.00 0.00 58 1015.1
20260507215948 22 275 8.0 14.5 0.00 0.00 0.00 59 1015.1
20260507215448 22 277 6.4 14.5 0.00 0.00 0.00 59 1015.3
20260507214948 22 277 6.4 16.1 0.00 0.00 0.00 59 1015.4
20260507214448 22 223 0.0 17.7 0.00 0.00 0.00 59 1015.5
20260507213948 22 251 4.8 17.7 0.00 0.00 0.00 59 1015.6
20260507213448 22 282 6.4 17.7 0.00 0.00 0.00 59 1015.7
20260507212948 23 248 8.0 17.7 0.00 0.00 0.00 59 1015.7
20260507212448 23 236 8.0 14.5 0.00 0.00 0.00 60 1015.7
20260507211948 22 216 3.2 16.1 0.00 0.00 0.00 61 1015.7
20260507211448 22 267 9.7 16.1 0.00 0.00 0.00 60 1015.7
20260507210948 23 268 6.4 20.9 0.00 0.00 0.00 59 1015.8
20260507210448 23 289 4.8 16.1 0.00 0.00 0.00 60 1015.8
20260507205948 23 202 9.7 17.7 0.00 0.00 0.00 58 1015.9
20260507205448 23 246 14.5 14.5 0.00 0.00 0.00 60 1015.9
20260507204948 23 289 11.3 16.1 0.00 0.00 0.00 59 1016.0
20260507204448 23 255 16.1 16.1 0.00 0.00 0.00 59 1016.1
20260507203948 23 274 4.8 19.3 0.00 0.00 0.00 59 1016.1
20260507203448 23 236 14.5 17.7 0.00 0.00 0.00 59 1016.1
20260507202948 23 116 1.6 12.9 0.00 0.00 0.00 59 1016.1
20260507202448 22 288 4.8 12.9 0.00 0.00 0.00 60 1016.1
20260507201948 22 289 6.4 16.1 0.00 0.00 0.00 59 1016.2
20260507201448 22 230 9.7 14.5 0.00 0.00 0.00 59 1016.3
20260507200948 23 232 14.5 17.7 0.00 0.00 0.00 59 1016.3
20260507200448 23 241 8.0 14.5 0.00 0.00 0.00 58 1016.4
20260507195948 23 260 12.9 14.5 0.00 0.00 0.00 57 1015.3
20260507195448 23 144 0.0 11.3 0.00 0.00 0.00 58 1016.5
20260507194948 22 182 3.2 14.5 0.00 0.00 0.00 59 1016.6
20260507194448 23 261 12.9 17.7 0.00 0.00 0.00 57 1016.6
20260507193948 23 239 4.8 11.3 0.00 0.00 0.00 57 1016.6
20260507193448 23 210 6.4 9.7 0.00 0.00 0.00 58 1016.7
20260507192948 22 258 6.4 14.5 0.00 0.00 0.00 58 1016.8
20260507192448 22 217 6.4 14.5 0.00 0.00 0.00 58 1016.8
20260507191948 22 272 11.3 14.5 0.00 0.00 0.00 59 1016.9
20260507191448 22 286 1.6 12.9 0.00 0.00 0.00 59 1017.1
20260507190948 22 271 9.7 16.1 0.00 0.00 0.00 58 1017.2
20260507190448 23 277 8.0 14.5 0.00 0.00 0.00 57 1017.2
20260507185948 23 227 4.8 12.9 0.00 0.00 0.00 56 1016.1
20260507185448 22 268 6.4 9.7 0.00 0.00 0.00 55 1017.4
20260507184948 23 136 1.6 11.3 0.00 0.00 0.00 55 1017.6
20260507184448 22 239 8.0 14.5 0.00 0.00 0.00 55 1017.6
20260507183948 22 233 4.8 12.9 0.00 0.00 0.00 56 1017.6
20260507183448 22 229 1.6 14.5 0.00 0.00 0.00 56 1017.7
20260507182948 22 216 9.7 14.5 0.00 0.00 0.00 57 1017.7
20260507182448 22 234 11.3 12.9 0.00 0.00 0.00 56 1017.7
20260507181948 22 125 0.0 6.4 0.00 0.00 0.00 57 1017.8
20260507181448 22 82 0.0 9.7 0.00 0.00 0.00 58 1017.8
20260507180948 22 199 3.2 9.7 0.00 0.00 0.00 58 1017.8
20260507180448 21 236 4.8 8.0 0.00 0.00 0.00 58 1017.9
20260507175948 21 139 0.0 0.0 0.00 0.00 0.00 59 1018.0
20260507175448 21 171 0.0 8.0 0.00 0.00 0.00 61 1018.1
20260507174948 21 181 0.0 9.7 0.00 0.00 0.00 61 1018.1
20260507174448 20 248 6.4 6.4 0.00 0.00 0.00 62 1018.2
20260507173948 20 227 4.8 6.4 0.00 0.00 0.00 62 1018.2
20260507173448 20 222 6.4 8.0 0.00 0.00 0.00 61 1018.2
20260507172948 20 175 0.0 6.4 0.00 0.00 0.00 63 1018.3
20260507172448 20 196 4.8 6.4 0.00 0.00 0.00 63 1018.3
20260507171948 20 254 1.6 8.0 0.00 0.00 0.00 63 1018.5
20260507171448 20 248 0.0 8.0 0.00 0.00 0.00 63 1018.5
20260507170948 20 236 0.0 3.2 0.00 0.00 0.00 64 1018.5
20260507170448 20 50 0.0 4.8 0.00 0.00 0.00 64 1018.6
20260507165948 19 157 3.2 4.8 0.00 0.00 0.00 65 1018.7
20260507165448 19 220 1.6 4.8 0.00 0.00 0.00 67 1018.7
20260507164948 18 95 0.0 4.8 0.00 0.00 0.00 68 1018.7
20260507164448 18 84 0.0 4.8 0.00 0.00 0.00 69 1018.7
20260507163948 18 267 0.0 6.4 0.00 0.00 0.00 70 1018.7
20260507163448 18 277 0.0 6.4 0.00 0.00 0.00 71 1018.8
20260507162948 18 274 4.8 6.4 0.00 0.00 0.00 71 1018.9
20260507162448 18 215 0.0 6.4 0.00 0.00 0.00 72 1018.9
20260507161948 18 268 3.2 8.0 0.00 0.00 0.00 72 1018.9
20260507161448 17 234 4.8 6.4 0.00 0.00 0.00 73 1018.9
20260507160948 17 206 0.0 3.2 0.00 0.00 0.00 73 1019.0
20260507160448 17 260 1.6 3.2 0.00 0.00 0.00 73 1019.0
20260507155948 17 170 0.0 1.6 0.00 0.00 0.00 75 1019.0
20260507155448 17 161 0.0 4.8 0.00 0.00 0.00 74 1019.0
20260507154948 17 140 0.0 4.8 0.00 0.00 0.00 76 1019.1
20260507154448 17 151 0.0 4.8 0.00 0.00 0.00 77 1019.1
20260507153948 16 151 4.8 4.8 0.00 0.00 0.00 78 1019.2
20260507153448 16 285 0.0 1.6 0.00 0.00 0.00 80 1019.2
20260507152948 16 105 0.0 4.8 0.00 0.00 0.00 81 1019.3
20260507152448 16 232 1.6 4.8 0.00 0.00 0.00 81 1019.3
20260507151948 16 237 0.0 1.6 0.00 0.00 0.00 82 1019.3
20260507151448 16 189 0.0 3.2 0.00 0.00 0.00 83 1019.3
20260507150948 16 150 0.0 4.8 0.00 0.00 0.00 82 1019.3
20260507150448 15 226 3.2 3.2 0.00 0.00 0.00 82 1019.3
20260507145948 15 310 0.0 4.8 0.00 0.00 0.00 83 1019.3
20260507145448 15 241 0.0 3.2 0.00 0.00 0.00 82 1019.3
20260507144948 15 243 1.6 4.8 0.00 0.00 0.00 80 1019.2
20260507144448 16 157 0.0 3.2 0.00 0.00 0.00 81 1019.2
20260507143948 16 109 0.0 1.6 0.00 0.00 0.00 81 1019.1
20260507143448 16 116 0.0 3.2 0.00 0.00 0.00 80 1019.1
20260507142948 16 123 3.2 3.2 0.00 0.00 0.00 79 1019.1
20260507142448 16 33 0.0 0.0 0.00 0.00 0.00 81 1019.0
20260507141948 15 33 0.0 0.0 0.00 0.00 0.00 82 1018.9
20260507141448 15 33 0.0 0.0 0.00 0.00 0.00 84 1018.8
20260507140948 15 33 0.0 0.0 0.00 0.00 0.00 85 1018.8
20260507140448 14 33 0.0 0.0 0.00 0.00 0.00 85 1018.7
20260507135948 13 33 0.0 0.0 0.00 0.00 0.00 87 1018.7
20260507135448 13 33 0.0 0.0 0.00 0.00 0.00 88 1018.7
20260507134948 13 33 0.0 0.0 0.00 0.00 0.00 89 1018.6
20260507134448 12 33 0.0 0.0 0.00 0.00 0.00 89 1017.3
20260507133948 12 33 0.0 3.2 0.00 0.00 0.00 90 1018.5
20260507133448 12 68 1.6 1.6 0.00 0.00 0.00 90 1017.0
20260507132948 12 52 0.0 0.0 0.00 0.00 0.00 90 1016.8
20260507132448 12 52 0.0 0.0 0.00 0.00 0.00 90 1016.8
20260507131948 12 52 0.0 0.0 0.00 0.00 0.00 90 1017.9
20260507131448 12 52 0.0 0.0 0.00 0.00 0.00 90 1017.8
20260507131023 12 52 0.0 0.0 0.00 0.00 0.00 89 1017.8
20260507130948 12 52 0.0 0.0 0.00 0.00 0.00 89 1017.8
20260507130448 12 52 0.0 1.6 0.00 0.00 0.00 89 1017.8
20260507125948 12 68 1.6 3.2 0.00 0.00 0.00 90 1017.8
20260507125448 12 50 3.2 3.2 0.00 0.00 0.00 90 1017.8
20260507124948 12 337 0.0 0.0 0.00 0.00 0.00 88 1017.8
20260507124448 12 337 0.0 0.0 0.00 0.00 0.00 88 1017.7
20260507123948 12 337 0.0 0.0 0.00 0.00 0.00 88 1017.7
20260507123448 12 337 0.0 0.0 0.00 0.00 0.00 88 1017.7
20260507122949 12 337 0.0 0.0 0.00 0.00 0.00 88 1017.7
20260507122448 12 337 0.0 1.6 0.00 0.00 0.00 89 1017.7
20260507121949 12 16 0.0 0.0 0.00 0.00 0.00 89 1017.6
20260507121449 12 30 0.0 1.6 0.00 0.00 0.00 89 1017.7
20260507120948 12 60 1.6 3.2 0.00 0.00 0.00 88 1017.7
20260507120449 12 75 1.6 3.2 0.00 0.00 0.00 88 1017.8
20260507115949 12 64 1.6 1.6 0.00 0.00 0.00 88 1017.8
20260507115449 12 92 0.0 0.0 0.00 0.00 0.00 88 1017.8
20260507114949 12 92 0.0 0.0 0.00 0.00 0.00 89 1017.9
20260507114449 12 92 0.0 0.0 0.00 0.00 0.00 88 1017.8
20260507113949 12 92 0.0 1.6 0.00 0.00 0.00 88 1017.8
20260507113449 12 116 1.6 3.2 0.00 0.00 0.00 88 1017.9
20260507112949 12 40 0.0 1.6 0.00 0.00 0.00 88 1017.8
20260507112449 12 57 1.6 1.6 0.00 0.00 0.00 88 1018.0
20260507111949 12 67 1.6 3.2 0.00 0.00 0.00 87 1018.1
20260507111449 13 247 0.0 0.0 0.00 0.00 0.00 87 1018.0
20260507110949 13 247 0.0 0.0 0.00 0.00 0.00 88 1018.1
20260507110449 13 247 0.0 0.0 0.00 0.00 0.00 87 1018.1
20260507105949 13 247 0.0 0.0 0.00 0.00 0.00 87 1018.2
20260507105449 13 247 0.0 0.0 0.00 0.00 0.00 87 1018.2
20260507104949 13 247 0.0 0.0 0.00 0.00 0.00 87 1018.2
20260507104449 13 247 0.0 0.0 0.00 0.00 0.00 87 1018.3
20260507103949 13 247 0.0 0.0 0.00 0.00 0.00 88 1018.3
20260507103449 13 247 0.0 3.2 0.00 0.00 0.00 88 1018.3
20260507102949 13 291 0.0 0.0 0.00 0.00 0.00 87 1017.1
20260507102449 13 54 0.0 0.0 0.00 0.00 0.00 87 1016.0
20260507101949 13 54 0.0 0.0 0.00 0.00 0.00 87 1018.2
20260507101449 13 54 0.0 0.0 0.00 0.00 0.00 86 1018.2
20260507100949 13 101 0.0 0.0 0.00 0.00 0.00 87 1018.1
20260507100449 13 108 0.0 1.6 0.00 0.00 0.00 87 1018.1
20260507095949 13 37 0.0 0.0 0.00 0.00 0.00 87 1018.1
20260507095449 13 37 0.0 0.0 0.00 0.00 0.00 87 1018.1
20260507094949 13 37 0.0 3.2 0.00 0.00 0.00 87 1018.2
20260507094449 13 288 0.0 0.0 0.00 0.00 0.00 88 1018.1
20260507093949 13 288 0.0 0.0 0.00 0.00 0.00 87 1018.3
20260507093449 13 288 0.0 0.0 0.00 0.00 0.00 87 1018.3
20260507092949 13 288 0.0 0.0 0.00 0.00 0.00 87 1018.3
20260507092449 13 288 0.0 4.8 0.00 0.00 0.00 87 1018.2
20260507091949 13 80 4.8 4.8 0.00 0.00 0.00 86 1018.3
20260507091449 13 127 1.6 1.6 0.00 0.00 0.00 86 1018.3
20260507090949 13 30 0.0 0.0 0.00 0.00 0.00 86 1018.3
20260507090449 13 30 0.0 0.0 0.00 0.00 0.00 86 1018.3
20260507085949 13 43 0.0 1.6 0.00 0.00 0.00 86 1018.3
20260507085449 13 45 0.0 0.0 0.00 0.00 0.00 86 1018.3
20260507084949 13 45 0.0 0.0 0.00 0.00 0.00 86 1018.3
20260507084449 13 61 0.0 0.0 0.00 0.00 0.00 86 1018.3
20260507083949 13 52 0.0 1.6 0.00 0.00 0.00 86 1018.2
20260507083449 13 54 0.0 3.2 0.00 0.00 0.00 85 1018.2
20260507082949 13 78 0.0 0.0 0.00 0.00 0.00 86 1018.3
20260507082449 13 78 0.0 0.0 0.00 0.00 0.00 85 1018.3
20260507081949 13 78 0.0 1.6 0.00 0.00 0.00 85 1018.3
20260507081449 13 75 0.0 3.2 0.00 0.00 0.00 85 1018.3
20260507080949 14 149 0.0 0.0 0.00 0.00 0.00 85 1018.5
20260507080449 14 149 0.0 0.0 0.00 0.00 0.00 86 1018.5
20260507075949 14 149 0.0 0.0 0.00 0.00 0.00 85 1018.3
20260507075449 14 149 0.0 1.6 0.00 0.00 0.00 85 1018.3
20260507074949 14 133 0.0 0.0 0.00 0.00 0.00 85 1018.3
20260507074449 14 133 0.0 0.0 0.00 0.00 0.00 85 1018.3
20260507073949 14 133 0.0 0.0 0.00 0.00 0.00 84 1018.2
20260507073449 14 133 0.0 0.0 0.00 0.00 0.00 84 1018.2
20260507072949 14 133 0.0 0.0 0.00 0.00 0.00 84 1018.2
20260507072449 14 111 0.0 3.2 0.00 0.00 0.00 83 1018.2
20260507071949 15 168 0.0 1.6 0.00 0.00 0.00 82 1018.3
20260507071449 15 45 0.0 0.0 0.00 0.00 0.00 83 1018.3
20260507070949 15 45 0.0 0.0 0.00 0.00 0.00 83 1018.3
20260507070449 15 45 0.0 0.0 0.00 0.00 0.00 82 1018.6
20260507065949 15 45 0.0 0.0 0.00 0.00 0.00 82 1018.6
20260507065449 15 45 0.0 0.0 0.00 0.00 0.00 82 1018.6
20260507064949 15 45 0.0 0.0 0.00 0.00 0.00 82 1018.7
20260507064449 15 45 0.0 0.0 0.00 0.00 0.00 82 1018.7
20260507063949 15 45 0.0 0.0 0.00 0.00 0.00 82 1018.8
20260507063449 15 45 0.0 0.0 0.00 0.00 0.00 82 1018.9
20260507062949 15 45 0.0 0.0 0.00 0.00 0.00 81 1018.9
20260507062449 15 45 0.0 0.0 0.00 0.00 0.00 81 1018.8
20260507061949 15 45 0.0 0.0 0.00 0.00 0.00 81 1018.8
20260507061449 15 45 0.0 0.0 0.00 0.00 0.00 81 1018.8
20260507060949 15 54 0.0 0.0 0.00 0.00 0.00 81 1018.9
20260507060449 15 74 0.0 0.0 0.00 0.00 0.00 82 1018.9
20260507055949 15 74 0.0 0.0 0.00 0.00 0.00 82 1018.9
20260507055449 15 74 0.0 0.0 0.00 0.00 0.00 81 1018.9
20260507054949 15 74 0.0 0.0 0.00 0.00 0.00 81 1018.8
20260507054449 15 74 0.0 0.0 0.00 0.00 0.00 81 1018.7
20260507053949 15 74 0.0 0.0 0.00 0.00 0.00 81 1018.6
20260507053449 15 74 0.0 0.0 0.00 0.00 0.00 81 1018.6
20260507052949 15 2 0.0 0.0 0.00 0.00 0.00 81 1018.5
20260507052449 15 2 0.0 1.6 0.00 0.00 0.00 82 1018.3
20260507051949 15 12 1.6 1.6 0.00 0.00 0.00 81 1018.3
20260507051449 15 56 0.0 1.6 0.00 0.00 0.00 81 1018.1
20260507050949 15 63 1.6 3.2 0.00 0.00 0.00 81 1018.2
20260507050449 15 139 1.6 3.2 0.00 0.00 0.00 80 1018.1
20260507045949 16 232 0.0 0.0 0.00 0.00 0.00 80 1018.2
20260507045449 16 243 0.0 3.2 0.00 0.00 0.00 81 1018.1
20260507044949 16 291 0.0 0.0 0.00 0.00 0.00 81 1018.0
20260507044449 16 291 0.0 1.6 0.00 0.00 0.00 82 1018.1
20260507043949 16 299 1.6 3.2 0.00 0.00 0.00 82 1018.1
20260507043449 16 288 0.0 1.6 0.00 0.00 0.00 81 1018.1
20260507042949 16 240 1.6 3.2 0.00 0.00 0.00 81 1018.1
20260507042449 16 232 3.2 3.2 0.00 0.00 0.00 81 1018.2
20260507041949 16 230 0.0 0.0 0.00 0.00 0.00 81 1018.1
20260507041449 16 244 0.0 0.0 0.00 0.00 0.00 81 1018.0
20260507040949 16 244 0.0 0.0 0.00 0.00 0.00 81 1018.0
20260507040449 16 277 0.0 1.6 0.00 0.00 0.00 82 1018.0
20260507035949 16 286 1.6 3.2 0.00 0.00 0.00 81 1017.9
20260507035449 16 258 1.6 3.2 0.00 0.00 0.00 81 1017.8
20260507034949 16 275 0.0 3.2 0.00 0.00 0.00 81 1017.8
20260507034449 16 288 3.2 3.2 0.00 0.00 0.00 81 1017.7
20260507033949 16 217 0.0 3.2 0.00 0.00 0.00 80 1017.6